Simultaneous Nadir Overpasses (SNOs) Predictions

Prediction of SNOs between GOES-16 and METOP-C Satellite Orbit:

Table of predicted SNOs for the next 14.0 days since TLE Epoch: 7/4/2020
Index Date Time (GOES-16) GOES-16 Lat,Lon METOP-C Lat,Lon Distance(km) Time Diff (sec)
1 07/05/2020 02:40:58 0.01, -75.19 -0.39, -76.97 202.95 80
2 07/06/2020 02:17:39 0.01, -75.19 0.72, -71.97 366.33 80
3 07/07/2020 14:36:31 -0.01, -75.21 0.30, -76.54 150.94 80
4 07/08/2020 14:18:31 -0.01, -75.22 -0.81, -71.54 418.97 80
5 07/10/2020 02:37:31 0.01, -75.21 -0.22, -76.13 105.16 80
6 07/11/2020 02:14:11 0.01, -75.22 0.89, -71.14 465.20 80
7 07/12/2020 14:33:05 -0.01, -75.26 0.07, -75.71 50.76 80
8 07/15/2020 02:34:04 0.01, -75.28 0.01, -75.31 2.97 80
9 07/17/2020 14:32:17 -0.02, -75.34 -0.10, -74.88 52.45 80
